Showing default

LEMUR 2 MONSON, 42839

Orbit data source: Space-Track

LEMUR 2 MONSON, 42839 is a payload satellite owned by Spire (US) in SSO that was launched on Fri, 14 Jul 2017 UTC via a SOYUZ-2-1A launch vehicle from the Tyuratam Missile And Space Complex (TTMTR). Payload-class satellites include a variety of spacecraft equipped with specific instruments for various scientific and technological missions. These include communications satellites like Starlink; space stations such as the ISS; scientific satellites like the Hubble; Earth observation satellites from companies like Planet Labs, Umbra, and HawkEye 360; GPS; miniature CubeSats for education and research; and military/defense satellites.

Loading next visibility...
Identifier
42839, 2017-042Q
Orbit
SSO
Country
Flag of USUS
Related business
Manufacturer
Spire/Glasgow
Mission
Operational Commercial Com/MetRO
Bus & Motor
CUBESAT 3U, Unknown motor
Mass
4 kg wet, 4 kg dry
Launch date (UTC)
2017-07-14 (9 years ago)
Launch vehicle
SOYUZ-2-1A
Launch site
Tyuratam Missile And Space Complex (TTMTR)
Object type
Payload
Rocket body
Debris
Shape & HBR
Box, 0.5 m
Radar Cross Section
0.093 m², Small (<0.1 m²)

Expand to show TLE details & history
Last TLE update: 15 hours ago

TLE from 15 hours ago
0 LEMUR 2 MONSON
1 42839U 17042Q   26023.48926548  .00025298  00000-0  10695-2 0  9998
2 42839  97.3993 205.4988 0007375 139.8846 220.2937 15.23185010466103
Epoch: 2026-01-23T11:44Z
TLE epoch observation values (Epoch: 2026-01-23T11:44:32.537Z)
Latitude
0.00001°
Longitude
-93.46412°
Altitude
503.205 km
Speed
7.611 km/s
True Right ascension
13h 41m 59s
True Declination
0° 00' 00"
Sunlit
Object was in daylight at epoch
Visualization orbit readout
Latitude
Unknown
Longitude
Unknown
Altitude
Unknown
Speed
Unknown
Apparent Right ascension
Unknown
Apparent Declination
Unknown
Sunlit
N/A
Visualization observer readout
Local Sidereal Time
03:52:35
Azimuth
Unknown
Elevation
Unknown
Doppler factor
Unknown
Orbital elements
Apogee altitude
498.27 km
Perigee altitude
488.135 km
Semi-major axis
6,871.339 km
Eccentricity
0.00074
Inclination
97.3993°
RAAN
205.4988°
Arg. of periapsis
139.8846°
True anomaly
220.23908°
Mean anomaly
220.2937°
Eccentric anomaly
220.26639°
Mean motion
3.81049 °/min
Orbital period
94.48 mins
BSTAR
0.0010695
Loading maneuver chart data...
Computing Atmospheric mass density...
Loading historical data...
Loading historical data...
Loading historical data...
Loading historical data...
Loading historical data...
Loading historical data...
Loading historical data...

Documentation

Showing up to 5 results
|